Location: Arrodets-la-Barthe
(43.0306°N, 0.2829°E)
Time: 17:07:36
(UTC+00:00)

STRAND 1 - Pass Details

Date: 06 April 2023
Orbit: 767 x 779 km, 98.4° (Epoch: 04 June)

Event Time Altitude Azimuth Distance (km) Brightness Sun altitude
Rises 20:41:11 0° 352° (N) 3,248 ? -22.8°
Reaches altitude 10° 20:45:40 10° 315° (NW) 2,314 ? -23.5°
Maximum altitude 20:46:38 11° 304° (NW) 2,276 ? -23.7°
Drops below altitude 10° 20:47:37 10° 293° (WNW) 2,312 ? -23.8°
Sets 20:52:06 0° 255° (WSW) 3,233 ? -24.5°
